Terug naar catalogus

CZ-6A DEB

ActiefPO
NORAD 60651·DEBRIS·🇨🇳 China

Gelanceerd Aug 6, 2024 vanaf Taiyuan Satellite Launch Center

Loading…

Volgende Passages (komende 24 uur)

TLE

VersSource: Space-Track

Epoch: Sep 14, 2026, 23:11 UTC

1 60651U 24140BC  26257.96601234  .00000244  00000-0  63239-4 0  9999
2 60651  88.8833 250.1900 0076991 355.6246   4.4275 14.44807545110789

Volg CZ-6A DEB in realtime met AllMySat

Download on the App Store